Location: Bastelaar
(51.0950°N, 3.8602°E)
Time: 01:16:38
(UTC+00:00)

BlueWalker 3 - Pass Details

Date: 23 January 2026
Orbit: 450 x 461 km, 53.2° (Epoch: 7 February)

Event Time Altitude Azimuth Distance (km) Brightness Sun altitude
Rises 17:45:49 0° 214° (SW) 2,448 6.2 -13.3°
Reaches altitude 10° 17:48:08 10° 202° (SSW) 1,578 5.0 -13.6°
Maximum altitude 17:51:11 27° 143° (SE) 899 3.0 -14.1°
Enters shadow 17:52:19 22° 111° (ESE) 1,022 3.0 -14.3°
